Iowa City, IA

3:23 AM CDT on April 21, 2018 (GMT -0500)
Iowa City Municipal

Weather History for KIOW - November, 2013

Change the Weather History Date:

Sunday, November 24, 2013

  Actual Average Record
Temperature  
Mean Temperature 18 °F 34 °F  
Max Temperature 29 °F 43 °F 74 °F (2017)
Min Temperature 7 °F 26 °F 7 °F (2013)
Degree Days  
Heating Degree Days 47 31  
Month to date heating degree days 644 589  
Since 1 July heating degree days 1135 1114  
Cooling Degree Days 0 0  
Month to date cooling degree days 0 0  
Year to date cooling degree days 1064 912  
Moisture  
Dew Point 6 °F    
Average Humidity 61    
Maximum Humidity 88    
Minimum Humidity 34    
Precipitation  
Precipitation 0.00 in 0.07 in 0.42 in (1973)
Month to date precipitation 1.02 1.91  
Year to date precipitation 34.42 34.32  
Sea Level Pressure  
Sea Level Pressure 30.63 in    
Wind  
Wind Speed 7 mph (SSW)    
Max Wind Speed 16 mph    
Max Gust Speed 21 mph    
Visibility 10 miles    
Events      
T = Trace of Precipitation, MM = Missing Value Source: NWS Daily Summary

Daily Weather History Graph

Daily Weather History Graph

Search for Another Location

Airport or City:

Astronomy

Nov. 24, 2013 Rise Set
Actual Time 7:06 AM CST 4:39 PM CST
Civil Twilight 6:35 AM CST 5:10 PM CST
Nautical Twilight 6:01 AM CST 5:44 PM CST
Astronomical Twilight 5:28 AM CST 6:17 PM CST
Moon 11:08 PM CST (11/24) 11:51 AM CST (11/24)
Length of Visible Light 10h 34m
Length of Day
9h 33m
Waning Gibbous, 60% of the Moon is Illuminated
Nov 24
Waning Gibbous
Nov 25
Last Quarter
Dec 2
New
Dec 9
First Quarter
Dec 17
Full

Hourly Weather History & Observations

Time (CST) Temp. Windchill Dew Point Humidity Pressure Visibility Wind Dir Wind Speed Gust Speed Precip Events Conditions
12:52 AM 10.0 °F 0.4 °F 3.9 °F 76% 30.80 in 10.0 mi NNW 5.8 mph - N/A   Clear
1:52 AM 9.0 °F - 3.9 °F 80% 30.80 in 10.0 mi Calm Calm - N/A   Clear
2:52 AM 8.1 °F 1.4 °F 3.9 °F 83% 30.80 in 10.0 mi WSW 3.5 mph - N/A   Clear
3:52 AM 7.0 °F 0.1 °F 3.9 °F 87% 30.79 in 10.0 mi WSW 3.5 mph - N/A   Clear
4:52 AM 7.0 °F - 3.0 °F 84% 30.78 in 10.0 mi Calm Calm - N/A   Clear
5:52 AM 7.0 °F -1.7 °F 3.0 °F 84% 30.79 in 10.0 mi West 4.6 mph - N/A   Clear
6:52 AM 7.0 °F - 3.0 °F 84% 30.79 in 10.0 mi Calm Calm - N/A   Clear
7:52 AM 9.0 °F - 3.9 °F 80% 30.79 in 10.0 mi Calm Calm - N/A   Clear
8:52 AM 12.9 °F 6.9 °F 7.0 °F 77% 30.78 in 10.0 mi SE 3.5 mph - N/A   Clear
9:52 AM 18.0 °F 6.9 °F 8.1 °F 65% 30.75 in 10.0 mi SSE 9.2 mph - N/A   Clear
10:52 AM 21.0 °F 11.4 °F 7.0 °F 55% 30.72 in 10.0 mi SSW 8.1 mph - N/A   Clear
11:52 AM 25.0 °F 14.8 °F 7.0 °F 46% 30.67 in 10.0 mi South 10.4 mph - N/A   Clear
12:52 PM 26.1 °F 16.8 °F 5.0 °F 41% 30.63 in 10.0 mi SSW 9.2 mph - N/A   Clear
1:52 PM 28.9 °F 18.2 °F 6.1 °F 38% 30.58 in 10.0 mi SSW 13.8 mph - N/A   Clear
2:52 PM 28.9 °F 18.6 °F 3.9 °F 35% 30.55 in 10.0 mi South 12.7 mph - N/A   Clear
3:52 PM 28.9 °F 18.6 °F 3.9 °F 35% 30.53 in 10.0 mi SSW 12.7 mph - N/A   Clear
4:52 PM 27.0 °F 18.0 °F 6.1 °F 41% 30.51 in 10.0 mi South 9.2 mph - N/A   Clear
5:52 PM 24.1 °F 16.0 °F 7.0 °F 48% 30.50 in 10.0 mi South 6.9 mph - N/A   Clear
6:52 PM 23.0 °F 13.9 °F 9.0 °F 55% 30.48 in 10.0 mi South 8.1 mph - N/A   Clear
7:52 PM 21.0 °F 10.6 °F 10.0 °F 63% 30.45 in 10.0 mi South 9.2 mph - N/A   Clear
8:52 PM 19.9 °F 9.3 °F 10.0 °F 65% 30.44 in 10.0 mi South 9.2 mph - N/A   Clear
9:52 PM 19.9 °F 12.1 °F 10.0 °F 65% 30.41 in 10.0 mi South 5.8 mph - N/A   Clear
10:52 PM 21.9 °F 12.5 °F 10.9 °F 63% 30.38 in 10.0 mi South 8.1 mph - N/A   Clear
11:52 PM 21.9 °F 13.4 °F 10.9 °F 63% 30.37 in 10.0 mi South 6.9 mph - N/A   Partly Cloudy